Weather Roundup
Issued by NWS

Home | Current Version | Previous Version | Graphics & Text | Print | Product List | Glossary Off
Versions: 1 2 3 4 5 6 7 8 9 10 11 12 13 14 15 16 17 18 19 20 21 22 23 24 25 26 27 28 29 30 31 32 33 34 35 36 37 38 39 40 41 42 43 44 45 46 47 48 49 50

000
NZUS93 KARX 220010
HRRWXR

CURRENT HOURLY OBSERVATIONS ACROSS
MUCH OF THE UPPER MISSISSIPPI VALLEY
NATIONAL WEATHER SERVICE LA CROSSE WI
700 PM CDT TUE OCT 21 2014


...SOUTHEAST MINNESOTA...


CITY           SKY/WX    TMP DP  RH WIND       PRES   REMARKS
ROCHESTER      CLEAR     45  38  76 SE8       30.18R
ROCHESTER/MAYO FAIR      52  36  54 E6        30.17S
WINONA         CLEAR     48  39  71 CALM      30.20R
AUSTIN         CLEAR     48  39  71 SE3       30.16R
ALBERT LEA     CLEAR     54  41  62 SE8       30.14S
DODGE CENTER   PTCLDY    46  39  76 SE7       30.16S
PRESTON        CLEAR     49  38  65 SE5       30.19R
OWATONNA       CLEAR     52  39  62 SE5       30.15R
FARIBAULT      CLEAR     54  41  62 E7        30.15R
$$

...ELSEWHERE IN MINNESOTA...


CITY           SKY/WX    TMP DP  RH WIND       PRES   REMARKS
MINNEAPOLIS    CLEAR     52  39  61 SE12      30.15R
INTNL FALLS    CLEAR     43  34  70 SE10      30.09R
DULUTH         CLEAR     40  35  83 E12       30.17S WCI  33
RED WING       CLEAR     52  39  62 SE7       30.17R
REDWOOD FALLS  CLEAR     60  40  47 SE12      30.04S
MANKATO        CLEAR     54  37  54 SE13      30.11S
WORTHINGTON    CLEAR     57  39  51 SE8       30.05R
FAIRMONT       CLEAR     57  37  47 SE9       30.09S
$$

...SOUTHWEST WISCONSIN...


CITY           SKY/WX    TMP DP  RH WIND       PRES   REMARKS
LA CROSSE      CLEAR     51  36  56 E5        30.20R
PRAIRIE DU CHI CLEAR     49  36  61 E6        30.21R
BOSCOBEL       CLEAR     49  36  61 E6        30.23R
LONE ROCK      CLEAR     45  34  65 E5        30.24R
PLATTEVILLE    CLEAR     44  37  76 E9        30.23S
FORT MC COY    CLEAR     44  35  71 E5        30.23R
CAMP DOUGLAS   CLEAR     37  37 100 SE3       30.23R
VIROQUA        FAIR      45  36  70 SE6       30.21R
WIS DELLS      CLEAR     40  34  78 SE3       30.24S
$$

...ELSEWHERE IN WISCONSIN...


CITY           SKY/WX    TMP DP  RH WIND       PRES   REMARKS
MILWAUKEE      PTCLDY    46  35  65 N10       30.24S
MADISON        CLEAR     41  35  79 CALM      30.25R
GREEN BAY      CLEAR     42  36  79 N3        30.25R
EAU CLAIRE     CLEAR     49  35  58 SE6       30.19S
BLACK RVR FLS  FAIR      45  35  68 E5        30.21S
MEDFORD        CLEAR     43  34  71 SE5       30.21S
WAUSAU         CLEAR     45  35  68 E3        30.22R
WIS RAPIDS     CLEAR     40  36  86 CALM      30.24S
MARSHFIELD     CLEAR     46  35  65 SE3       30.22S
RICE LAKE      CLEAR     47  35  63 SE5       30.20S
$$

...NORTHEAST IOWA...


CITY           SKY/WX    TMP DP  RH WIND       PRES   REMARKS
DECORAH        CLEAR     48  37  66 SE5       30.18R
MASON CITY     CLEAR     52  40  63 SE8       30.16R
CHARLES CITY   CLEAR     50  39  66 SE6       30.17R
OELWEIN        CLEAR     50  39  66 E8        30.19R
$$

...ELSEWHERE IN IOWA...


CITY           SKY/WX    TMP DP  RH WIND       PRES   REMARKS
DES MOINES     CLEAR     60  43  53 E10       30.13R
IOWA CITY      CLEAR     54  38  54 E6        30.19R
FORT DODGE     CLEAR     57  41  54 SE7       30.12R
$$

...NORTHERN ILLINOIS...


CITY           SKY/WX    TMP DP  RH WIND       PRES   REMARKS
CHICAGO-OHARE  MOCLDY    48  37  65 NE13      30.22R
CHICAGO-MIDWAY CLOUDY    51  38  60 NE12      30.22R
MOLINE         CLEAR     47  37  68 E5        30.20R
ROCKFORD       MOCLDY    49  37  63 E7        30.25R
PEORIA         CLEAR     51  38  60 E5        30.19R
$$

NOTE: "FAIR" INDICATES FEW OR NO CLOUDS BELOW 12,000 FEET WITH NO
SIGNIFICANT WEATHER AND/OR OBSTRUCTIONS TO VISIBILITY. WIND
SPEEDS ARE IN MILES-PER-HOUR.



USA.gov is the U.S. government's official web portal to all federal, state and local government web resources and services.